Location: *
(53.6598°N, 9.9071°E)
Time: 13:50:04
(UTC+00:00)

Daily predictions for brighter satellites

Satellite Brightness Start Highest point End
(mag) Time Altitude Azimuth Time Altitude Azimuth Time Altitude Azimuth
NOSS 3-4 (A) 4.4 20:28:08 10° S 20:32:59 26° ESE 20:38:04 10° ENE
NOSS 3-4 (C) 4.4 20:28:15 10° S 20:33:06 26° ESE 20:38:10 10° ENE
STARLINK-1233 3.6 20:30:04 10° W 20:34:12 70° SSW 20:38:19 10° ESE
Cosmos 1437 Rocket 4.1 20:31:16 10° SW 20:34:54 41° WNW 20:38:37 10° N
Okean 2 3.7 20:31:42 10° S 20:35:44 53° E 20:39:49 10° NNE
STARLINK-1143 3.6 20:32:22 10° W 20:36:31 83° S 20:40:41 10° E
COSMOS 2487 3.8 20:33:27 10° N 20:36:32 29° NE 20:39:37 10° ESE
STARLINK-1204 3.7 20:35:02 10° W 20:39:10 68° SSW 20:43:17 10° ESE
STARLINK-1241 3.6 20:37:21 10° W 20:41:31 84° S 20:45:41 10° E
STARLINK-1238 3.7 20:40:02 10° W 20:44:09 66° SSW 20:48:16 10° ESE
Cosmos 1544 Rocket 3.8 20:40:35 10° N 20:44:52 55° ENE 20:49:09 10° SSE
Cosmos 2297 4.3 20:40:31 10° SW 20:46:11 66° NW 20:51:56 10° NNE
STARLINK-1239 3.6 20:42:19 10° W 20:46:29 84° S 20:50:39 10° E
STARLINK-60 3.5 20:45:22 10° SW 20:48:18 34° SSE 20:51:13 10° E
STARLINK-1201 3.7 20:45:01 10° W 20:49:07 64° SSW 20:53:13 10° ESE
Cosmos 1766 4.0 20:46:35 10° NNW 20:50:30 53° W 20:54:23 10° S
STARLINK-1240 3.6 20:47:17 10° W 20:51:27 84° S 20:55:36 10° E
Cosmos 1242 Rocket 3.2 20:49:15 10° SSE 20:52:43 40° E 20:56:12 10° NNE
Cosmos 2227 Rocket 4.2 20:48:40 10° NNW 20:53:10 23° NNE 20:57:39 10° E
BREEZE-M DEB 3.8 20:51:08 10° SSW 20:53:41 30° SE 20:59:23 10° E
STARLINK-1206 3.7 20:49:58 10° W 20:54:05 62° SSW 20:58:11 10° ESE
Cosmos 2369 Rocket 2.3 20:48:39 10° SSW 20:54:13 61° ESE 20:59:47 10° NE
NOSS 2-2 (C) 3.4 20:51:01 10° SW 20:54:40 79° NW 20:59:03 10° NE
ERBS 3.4 20:52:44 10° WNW 20:55:57 45° N 20:59:10 10° ENE
STARLINK-1216 3.6 20:52:17 10° W 20:56:27 83° S 21:00:36 10° E
STARLINK-1205 3.7 20:54:58 10° W 20:59:03 60° SSW 21:03:08 10° ESE
STARLINK-1212 4.3 20:57:36 10° W 21:00:13 24° SSW 21:02:33 11° SSE
STARLINK-1105 4.3 20:58:07 10° W 21:00:42 24° SSW 21:03:01 12° SSE
ATLAS 2AS CENTAUR R/B 3.3 20:53:17 10° SSW 21:00:49 47° ESE 21:08:17 10° NE
STARLINK-1237 3.6 20:57:14 10° W 21:01:24 83° S 21:05:34 10° E
STARLINK-1247 4.3 20:58:57 10° W 21:01:33 24° SSW 21:03:52 12° SSE
STARLINK-1227 4.3 20:59:26 10° W 21:02:02 24° SSW 21:04:18 12° SSE
STARLINK-1226 4.4 21:00:29 10° W 21:03:03 24° SSW 21:05:20 12° SSE
STARLINK-1215 4.4 21:01:14 10° W 21:03:49 23° SSW 21:06:03 12° SSE
STARLINK-1218 3.8 20:59:58 10° W 21:04:03 57° SSW 21:08:07 10° ESE
STARLINK-1229 4.4 21:02:05 10° W 21:04:29 22° SSW 21:06:32 12° SSE
Cosmos 292 Rocket 3.9 20:59:48 10° S 21:04:34 61° ESE 21:09:23 10° NNE
ERS-1 Rocket 3.3 20:59:58 10° S 21:04:57 63° WSW 21:10:00 10° NNW
STARLINK-1270 4.4 21:02:55 10° W 21:05:18 22° SSW 21:07:19 12° SSE
STARLINK-1217 4.4 21:03:06 10° W 21:05:39 23° SSW 21:07:50 12° SSE
STARLINK-1202 3.6 21:02:13 10° W 21:06:23 83° S 21:10:32 10° E
STARLINK-1189 4.4 21:05:13 10° W 21:07:35 21° SSW 21:09:34 12° SSE
STARLINK-1254 3.8 21:04:55 10° W 21:08:59 55° SSW 21:13:02 10° ESE
STARLINK-1188 4.5 21:06:38 10° W 21:09:01 21° SSW 21:10:59 12° SSE
STARLINK-1203 3.6 21:05:06 10° W 21:09:19 82° S 21:13:33 10° E
Cosmos 1867 3.9 21:04:33 10° NW 21:09:57 60° SW 21:15:01 11° SSE
Cosmos 968 Rocket 3.8 21:07:45 10° NNW 21:12:50 61° WSW 21:17:48 10° S
STARLINK-1231 3.9 21:09:53 10° W 21:13:56 53° SSW 21:17:58 10° SE
STARLINK-1452 2.8 21:13:07 10° SW 21:14:50 25° SSE 21:16:35 10° E
STARLINK-1444 2.8 21:13:05 10° SW 21:14:50 26° SSE 21:16:37 10° E
STARLINK-1246 3.6 21:12:12 10° W 21:16:21 81° S 21:20:31 10° E
STARLINK-1436 (VISORSAT) 2.7 21:14:51 10° SW 21:16:35 26° SSE 21:18:22 10° E
STARLINK-1450 2.7 21:14:56 10° SW 21:16:40 26° SSE 21:18:28 10° E
STARLINK-1392 2.7 21:15:01 10° SW 21:16:47 26° SSE 21:18:33 10° E
STARLINK-1398 2.7 21:15:01 10° SW 21:16:47 26° SSE 21:18:32 10° E
STARLINK-1399 2.7 21:15:01 10° SW 21:16:47 26° SSE 21:18:33 10° E
STARLINK-1393 2.7 21:15:03 10° SW 21:16:48 26° SSE 21:18:34 10° E
STARLINK-1395 2.7 21:15:03 10° SW 21:16:48 26° SSE 21:18:34 10° E
STARLINK-1394 2.7 21:15:03 10° SW 21:16:48 26° SSE 21:18:34 10° E
STARLINK-1415 2.7 21:15:03 10° SW 21:16:48 26° SSE 21:18:34 10° E
STARLINK-1414 2.7 21:15:03 10° SW 21:16:48 26° SSE 21:18:34 10° E
STARLINK-1396 2.7 21:15:04 10° SW 21:16:49 26° SSE 21:18:35 10° E
STARLINK-1397 2.7 21:15:04 10° SW 21:16:49 26° SSE 21:18:35 10° E
STARLINK-1416 2.7 21:15:04 10° SW 21:16:49 26° SSE 21:18:35 10° E
STARLINK-1404 2.7 21:15:04 10° SW 21:16:49 26° SSE 21:18:35 10° E
STARLINK-1401 2.7 21:15:04 10° SW 21:16:49 26° SSE 21:18:36 10° E
STARLINK-1419 2.7 21:15:05 10° SW 21:16:49 26° SSE 21:18:36 10° E
STARLINK-1408 2.7 21:15:05 10° SW 21:16:50 26° SSE 21:18:36 10° E
STARLINK-1453 2.7 21:15:06 10° SW 21:16:50 26° SSE 21:18:37 10° E
STARLINK-1437 2.7 21:15:06 10° SW 21:16:50 26° SSE 21:18:37 10° E
STARLINK-1417 2.7 21:15:06 10° SW 21:16:51 26° SSE 21:18:37 10° E
STARLINK-1402 2.7 21:15:06 10° SW 21:16:51 26° SSE 21:18:37 10° E
STARLINK-1420 2.7 21:15:07 10° SW 21:16:51 26° SSE 21:18:38 10° E
STARLINK-1413 2.7 21:15:07 10° SW 21:16:52 26° SSE 21:18:39 10° E
STARLINK-1458 2.7 21:15:07 10° SW 21:16:52 26° SSE 21:18:39 10° E
STARLINK-1406 2.7 21:15:07 10° SW 21:16:52 26° SSE 21:18:39 10° E
STARLINK-1460 2.7 21:15:08 10° SW 21:16:53 26° SSE 21:18:39 10° E
STARLINK-1422 2.7 21:15:08 10° SW 21:16:53 26° SSE 21:18:39 10° E
STARLINK-1440 2.7 21:15:09 10° SW 21:16:53 26° SSE 21:18:40 10° E
STARLINK-1445 2.7 21:15:09 10° SW 21:16:54 26° SSE 21:18:41 10° E
STARLINK-1443 2.7 21:15:10 10° SW 21:16:55 26° SSE 21:18:42 10° E
STARLINK-1446 2.7 21:15:11 10° SW 21:16:56 26° SSE 21:18:42 10° E
STARLINK-1454 2.7 21:15:11 10° SW 21:16:56 26° SSE 21:18:43 10° E
STARLINK-1457 2.7 21:15:12 10° SW 21:16:56 26° SSE 21:18:43 10° E
STARLINK-1451 2.7 21:15:12 10° SW 21:16:57 26° SSE 21:18:44 10° E
STARLINK-1456 2.7 21:15:12 10° SW 21:16:57 26° SSE 21:18:43 10° E
STARLINK-1447 2.7 21:15:13 10° SW 21:16:57 26° SSE 21:18:44 10° E
STARLINK-1455 2.7 21:15:13 10° SW 21:16:58 26° SSE 21:18:45 10° E
STARLINK-1442 2.7 21:15:14 10° SW 21:16:58 26° SSE 21:18:45 10° E
STARLINK-1449 2.7 21:15:14 10° SW 21:16:58 26° SSE 21:18:45 10° E
STARLINK-1448 2.7 21:15:14 10° SW 21:16:59 26° SSE 21:18:45 10° E
STARLINK-1441 2.7 21:15:14 10° SW 21:16:59 26° SSE 21:18:46 10° E
STARLINK-1405 2.7 21:15:15 10° SW 21:16:59 26° SSE 21:18:47 10° E
STARLINK-1421 2.7 21:15:15 10° SW 21:17:00 26° SSE 21:18:47 10° E
STARLINK-1423 2.7 21:15:15 10° SW 21:17:00 26° SSE 21:18:47 10° E
STARLINK-1410 2.7 21:15:16 10° SW 21:17:00 26° SSE 21:18:47 10° E
STARLINK-1407 2.7 21:15:16 10° SW 21:17:01 26° SSE 21:18:48 10° E
STARLINK-1400 2.7 21:15:16 10° SW 21:17:01 26° SSE 21:18:48 10° E
STARLINK-1439 2.7 21:15:17 10° SW 21:17:01 26° SSE 21:18:48 10° E
STARLINK-1409 2.7 21:15:18 10° SW 21:17:02 26° SSE 21:18:49 10° E
STARLINK-1351 2.7 21:15:18 10° SW 21:17:02 26° SSE 21:18:49 10° E
STARLINK-1434 2.7 21:15:18 10° SW 21:17:03 26° SSE 21:18:50 10° E
STARLINK-1418 2.7 21:15:18 10° SW 21:17:03 26° SSE 21:18:50 10° E
STARLINK-1370 2.7 21:15:18 10° SW 21:17:03 26° SSE 21:18:50 10° E
STARLINK-1403 2.7 21:15:19 10° SW 21:17:04 26° SSE 21:18:51 10° E
STARLINK-1433 2.7 21:15:20 10° SW 21:17:04 26° SSE 21:18:51 10° E
STARLINK-1411 2.7 21:15:21 10° SW 21:17:06 26° SSE 21:18:53 10° E
STARLINK-1438 2.7 21:15:22 10° SW 21:17:06 26° SSE 21:18:53 10° E
STARLINK-1412 2.7 21:15:22 10° SW 21:17:06 26° SSE 21:18:53 10° E
NOSS 5 (C) 4.3 21:14:13 10° NW 21:17:16 82° SW 21:20:32 12° SE
Cosmos 1092 Rocket 4.2 21:11:42 10° SSW 21:17:50 73° WNW 21:24:02 10° N
STARLINK-1232 3.9 21:14:54 10° W 21:18:56 51° SSW 21:22:48 11° SE
STARLINK-29 3.6 21:17:20 10° SW 21:20:17 33° SSE 21:23:15 10° E
Cosmos 1975 Rocket 3.4 21:16:03 10° SSW 21:20:27 67° WNW 21:24:50 10° N
ALOS 2 4.4 21:17:11 10° ESE 21:20:34 22° ENE 21:23:58 10° N
STARLINK-1224 3.6 21:17:11 10° W 21:21:21 80° S 21:25:30 10° E
Cosmos 1025 Rocket 3.4 21:17:47 11° SSE 21:21:42 50° E 21:25:54 10° NNE
STARLINK-1208 4.0 21:19:51 10° W 21:23:52 48° SSW 21:27:32 12° SE
STARLINK-1225 3.6 21:22:10 10° W 21:26:19 79° S 21:30:28 10° ESE
COSMOS 2455 3.3 21:22:33 10° S 21:28:09 42° ESE 21:33:48 10° NE
STARLINK-1271 4.0 21:24:52 10° W 21:28:51 46° SSW 21:32:21 13° SE
BREEZE-M DEB (TANK) 3.7 21:15:47 10° WSW 21:29:00 54° S 21:32:46 10° E
Cosmos 1470 3.1 21:25:27 10° NNW 21:29:17 61° W 21:32:50 12° S
STARLINK-1230 3.5 21:27:07 10° W 21:31:16 78° S 21:35:25 10° ESE
ATLAS CENTAUR R/B 1.5 21:29:39 10° WNW 21:31:23 39° NNE 21:33:38 10° E
Cosmos 1777 Rocket 4.4 21:26:24 10° NNW 21:31:36 59° ENE 21:36:21 12° SE
STARLINK-1154 4.1 21:29:50 10° W 21:33:47 44° SSW 21:37:07 14° SE
Cosmos 1726 2.3 21:30:35 10° N 21:34:18 65° ENE 21:37:12 16° SSE
Timation 2 Rocket 4.2 21:28:13 10° NNW 21:34:36 71° NE 21:40:21 12° SE
Cosmos 1340 Rocket 3.0 21:30:51 10° N 21:34:56 69° ENE 21:38:13 15° SSE
STARLINK-1243 3.5 21:32:07 10° W 21:36:16 76° S 21:40:25 10° ESE
Thor Agena Rocket 4.2 21:31:45 10° NNE 21:36:44 39° E 21:40:50 14° SSE
Cosmos 2228 4.0 21:34:17 10° N 21:38:13 35° ENE 21:41:35 13° SE
STARLINK-1197 4.1 21:34:49 10° W 21:38:44 42° SSW 21:41:53 15° SE
Cosmos 1674 4.2 21:36:36 14° SE 21:38:55 23° E 21:42:00 10° NE
STARLINK-1320 4.2 21:39:31 16° S 21:40:41 20° SE 21:43:03 10° E
STARLINK-1322 4.2 21:39:49 16° S 21:41:00 20° SE 21:43:22 10° E
STARLINK-1236 3.5 21:37:06 10° W 21:41:14 74° S 21:45:23 10° ESE
STARLINK-1324 4.2 21:40:12 17° S 21:41:22 20° SE 21:43:45 10° E
STARLINK-1294 4.2 21:40:31 17° S 21:41:39 20° SE 21:44:02 10° E
STARLINK-1261 4.2 21:40:49 17° S 21:42:01 20° SE 21:44:25 10° E
STARLINK-1325 4.2 21:41:09 17° S 21:42:21 20° SE 21:44:46 10° E
STARLINK-1333 4.2 21:41:30 17° S 21:42:42 20° SSE 21:45:07 10° E
STARLINK-1334 4.2 21:41:50 17° S 21:43:01 21° SSE 21:45:27 10° E
STARLINK-1326 4.2 21:42:09 17° S 21:43:23 21° SE 21:45:48 10° E
STARLINK-1323 4.2 21:42:27 17° S 21:43:42 21° SSE 21:46:07 10° E
STARLINK-1198 4.2 21:39:49 10° W 21:43:43 40° SSW 21:46:41 16° SE
STARLINK-1349 4.2 21:42:47 17° S 21:44:02 21° SE 21:46:27 10° E
STARLINK-1336 4.2 21:43:06 17° S 21:44:22 21° SSE 21:46:48 10° E
Lacrosse 4 Rocket 3.5 21:40:57 10° NNW 21:44:35 25° NNE 21:48:08 10° E
STARLINK-1331 4.2 21:43:27 17° S 21:44:43 21° SSE 21:47:10 10° E
STARLINK-1344 4.2 21:43:45 17° S 21:45:02 21° SSE 21:47:29 10° E
Cosmos 1842 4.5 21:41:27 10° SW 21:45:08 40° WNW 21:48:50 10° N
Cosmos 1455 Rocket 4.5 21:41:20 10° NNW 21:45:11 32° W 21:49:01 10° SSW
STARLINK-1343 4.1 21:44:04 17° S 21:45:22 21° SSE 21:47:50 10° E
STARLINK-1346 4.1 21:44:17 16° S 21:45:41 21° SSE 21:48:11 10° E
STARLINK-1328 4.1 21:44:43 17° S 21:46:01 21° SSE 21:48:29 10° E
STARLINK-1354 4.1 21:45:04 17° S 21:46:24 21° SSE 21:48:52 10° E
STARLINK-1347 4.1 21:45:23 17° S 21:46:42 22° SSE 21:49:11 10° E
STARLINK-1357 4.1 21:45:44 17° S 21:47:04 22° SSE 21:49:33 10° E
Meteor 2-10 4.0 21:42:10 10° NNW 21:47:14 78° WSW 21:51:31 15° S
STARLINK-1335 4.1 21:46:00 17° S 21:47:21 22° SSE 21:49:50 10° E
RESURS DK-1 3.5 21:45:05 16° SSE 21:47:28 27° ESE 21:51:01 10° NE
STARLINK-1327 4.1 21:46:23 17° S 21:47:44 22° SSE 21:50:14 10° E
STARLINK-1340 4.1 21:46:43 17° S 21:48:05 22° SSE 21:50:35 10° E
STARLINK-1356 4.1 21:47:02 17° S 21:48:25 22° SSE 21:50:55 10° E
STARLINK-1199 4.3 21:44:48 10° W 21:48:39 38° SSW 21:51:27 17° SSE
STARLINK-1345 4.1 21:47:21 17° S 21:48:44 22° SSE 21:51:15 10° E
Cosmos 1953 2.3 21:44:54 10° NNW 21:48:54 82° W 21:51:59 16° S
STARLINK-1355 4.1 21:47:39 17° S 21:49:04 22° SSE 21:51:35 10° E
EXPRESS MD2 4.1 21:45:14 10° WSW 21:49:08 60° S 21:57:10 10° E
STARLINK-1321 4.1 21:47:59 17° S 21:49:23 22° SSE 21:51:55 10° E
STARLINK-1358 4.1 21:48:21 17° S 21:49:46 22° SSE 21:52:17 10° E
STARLINK-1332 4.1 21:48:38 17° S 21:50:04 22° SSE 21:52:35 10° E
STARLINK-1348 4.1 21:48:58 17° S 21:50:24 23° SSE 21:52:56 10° E
CENTAUR R/B 4.0 21:43:26 10° NW 21:50:41 39° WSW 21:57:56 12° S
STARLINK-1330 4.1 21:49:18 17° S 21:50:45 23° SSE 21:53:17 10° E
S3M 4.1 21:44:40 10° NNW 21:50:52 80° W 21:56:24 14° S
USA 215 3.4 21:44:29 10° ESE 21:51:03 79° NNE 21:57:37 10° WNW
STARLINK-1363 4.0 21:49:36 17° S 21:51:04 23° SSE 21:53:36 10° E
STARLINK-1269 3.6 21:47:04 10° W 21:51:11 71° SSW 21:55:19 10° ESE
STARLINK-1337 4.0 21:49:57 17° S 21:51:25 23° SSE 21:53:57 10° E
STARLINK-1342 4.0 21:50:17 16° S 21:51:46 23° SSE 21:54:20 10° E
STARLINK-1364 4.0 21:50:37 16° S 21:52:06 23° SSE 21:54:40 10° E
STARLINK-1376 4.0 21:50:56 17° S 21:52:26 23° SSE 21:55:00 10° E
STARLINK-1360 4.0 21:51:14 16° S 21:52:46 23° SSE 21:55:21 10° E
STARLINK-1361 4.0 21:51:36 16° S 21:53:06 23° SSE 21:55:41 10° E
STARLINK-1367 4.0 21:51:50 16° S 21:53:26 24° SSE 21:56:01 10° E
Cosmos 2263 4.4 21:47:50 10° SW 21:53:26 77° WNW 21:59:07 10° NNE
Cosmos 2315 Rocket 4.2 21:47:19 10° N 21:53:29 62° ENE 21:58:39 15° SSE
STARLINK-1210 4.3 21:49:47 10° W 21:53:37 36° SSW 21:56:14 17° SSE
STARLINK-1366 4.0 21:52:14 16° S 21:53:47 24° SSE 21:56:22 10° E
SPOT 5 4.5 21:49:31 10° SSW 21:54:16 32° W 21:59:04 10° NNW
Cosmos 1726 Rocket 4.3 21:50:24 10° N 21:54:33 42° ENE 21:57:49 15° SE
STARLINK-52 3.1 21:52:33 10° SW 21:55:39 46° SSE 21:58:45 10° E
STARLINK-1200 3.6 21:52:02 10° W 21:56:10 69° SSW 22:00:17 10° ESE
STARLINK-1369 4.5 21:53:22 10° SSW 21:56:42 26° SE 22:00:02 10° E
ATLAS 3B R/B 3.0 21:51:55 10° NW 21:58:29 54° SW 22:04:05 15° SSE
STARLINK-1219 4.4 21:54:49 10° W 21:58:35 34° SSW 22:01:02 18° SSE
Cosmos 1271 Rocket 3.4 21:56:38 10° SSW 22:00:29 56° WNW 22:04:26 10° N
Cosmos 2297 Rocket 2.9 21:55:00 10° NNW 22:00:30 49° NE 22:05:58 10° ESE
STARLINK-1372 4.4 21:57:30 10° SSW 22:00:54 28° SSE 22:04:19 10° E
STARLINK-1192 3.6 21:57:00 10° W 22:01:08 67° SSW 22:05:15 10° ESE
SL-4 R/B 2.4 21:56:55 10° WSW 22:01:40 62° SSE 22:06:26 10° E
Cosmos 2219 3.7 21:57:09 10° NNW 22:02:46 58° NE 22:08:06 11° SE
Terra 3.2 21:58:38 10° SSW 22:02:53 31° W 22:07:09 10° NNW
SJ 16-02 3.0 21:59:39 10° N 22:03:29 27° NE 22:07:18 10° ESE
STARLINK-1211 4.5 21:59:48 10° W 22:03:31 32° SSW 22:05:49 19° SSE
STARLINK-1378 4.3 22:00:18 10° SSW 22:03:41 28° SSE 22:07:03 10° E
Aureole 3 2.5 22:01:48 10° N 22:04:56 87° ENE 22:06:42 22° SSE
Helios 1A 4.4 22:01:44 11° ESE 22:05:16 29° ENE 22:08:55 10° N
BREEZE-M DEB (TANK) 3.7 22:01:05 10° SSW 22:05:27 20° SSE 22:07:54 10° ESE
STARLINK-1244 3.6 22:01:58 10° W 22:06:05 65° SSW 22:10:12 10° ESE
Cosmos 1943 Rocket 3.5 22:01:22 10° WSW 22:06:38 41° NW 22:11:59 10° NNE
STARLINK-1379 4.3 22:03:36 10° SSW 22:06:59 29° SSE 22:10:23 10° E
SeaSat 1 3.3 22:03:39 10° NE 22:08:04 32° ESE 22:11:04 17° SSE
SL-4 R/B 1.8 22:07:36 22° ESE 22:08:28 31° ENE 22:10:28 10° N
FALCON 9 DEB 3.4 22:05:40 10° SW 22:08:57 44° SSE 22:12:15 10° E
Meteor 2-15 Rocket 4.5 22:03:31 10° N 22:09:43 80° ENE 22:14:37 17° SSE
STARLINK-1329 4.2 22:06:48 10° SSW 22:10:14 30° SSE 22:13:41 10° E
Cosmos 1626 3.9 22:08:16 14° SE 22:10:15 20° E 22:13:03 10° NE
Cosmos 1174 3.5 22:07:05 10° SW 22:10:26 80° SE 22:14:32 10° NE
STARLINK-1138 3.6 22:06:57 10° W 22:11:03 63° SSW 22:15:09 10° ESE
COSMOS 2487 3.8 22:08:32 10° NW 22:11:34 28° WSW 22:13:45 15° SSW
ATLAS CENTAUR R/B 1.3 22:07:35 10° SW 22:11:55 89° NNW 22:15:58 10° NE
Cosmos 1707 3.4 22:08:16 10° SSW 22:12:00 53° WNW 22:15:50 10° N
STARLINK-1362 4.2 22:11:58 10° SSW 22:15:30 32° SSE 22:19:02 10° E
STARLINK-1143 3.6 22:11:56 10° W 22:16:02 60° SSW 22:20:07 10° ESE
EO 1 Del DPAF 3.2 22:13:23 10° NNE 22:17:11 75° ESE 22:19:51 18° S
STARLINK-1373 4.1 22:16:14 10° SW 22:19:49 34° SSE 22:23:23 10° E
Cosmos 1536 Rocket 4.1 22:16:15 10° SSW 22:20:27 54° WNW 22:24:47 10° N
STARLINK-1241 3.7 22:16:56 10° W 22:21:01 58° SSW 22:25:00 10° ESE
STARLINK-1390 4.0 22:19:07 10° SW 22:22:39 34° SSE 22:26:11 10° E
NOSS 3-4 (A) 3.5 22:17:06 10° SW 22:23:08 86° NW 22:29:43 10° NE
NOSS 3-4 (C) 3.5 22:17:12 10° SW 22:23:14 86° NW 22:29:49 10° NE
STARLINK-60 2.8 22:20:59 10° W 22:24:10 77° S 22:27:22 10° E
STARLINK-1239 3.7 22:21:54 10° W 22:25:58 56° SSW 22:29:46 12° ESE
Cosmos 1656 Rocket 4.2 22:22:05 10° SW 22:27:39 62° NW 22:33:09 10° NNE
STARLINK-1365 4.0 22:24:10 10° SW 22:27:51 38° SSE 22:31:33 10° E
Cosmos 2266 Rocket 4.0 22:24:05 14° SSW 22:29:26 82° W 22:35:31 10° N
Cosmos 2084 3.6 22:26:10 12° SSW 22:30:12 56° SE 22:34:35 10° NE
STARLINK-1240 3.7 22:26:52 10° W 22:30:55 54° SSW 22:34:32 13° SE
Cosmos 1655 Rocket 4.4 22:25:22 10° SSW 22:31:33 63° WNW 22:37:50 10° N
Cosmos 1356 Rocket 4.5 22:28:29 10° N 22:32:27 38° ENE 22:35:40 15° SE
ERBS 2.2 22:29:10 10° WNW 22:32:30 84° NNE 22:35:50 10° ESE
STARLINK-1216 3.8 22:31:52 10° W 22:35:54 51° SSW 22:39:20 14° SE
Cosmos 2227 Rocket 2.4 22:32:32 10° NNW 22:38:15 71° NE 22:43:18 13° SE
Cosmos 2369 Rocket 3.8 22:33:25 10° WSW 22:38:36 36° NW 22:43:47 10° NNE
STARLINK-1237 3.8 22:36:49 10° W 22:40:50 49° SSW 22:44:05 15° SE
STARLINK-1338 3.7 22:38:56 10° SW 22:42:31 42° SSE 22:46:07 10° E
STARLINK-1202 3.9 22:41:48 10° W 22:45:48 47° SSW 22:48:52 16° SE
Cosmos 2292 Rocket 3.6 22:44:11 16° SW 22:46:28 44° WNW 22:49:21 10° N
SL-14 R/B 3.8 22:44:57 22° SSE 22:47:05 45° E 22:50:48 10° NNE
Cosmos 1908 3.9 22:43:45 10° NNW 22:47:24 44° W 22:49:45 19° SSW
Cosmos 2058 Rocket 3.1 22:43:22 10° N 22:47:51 86° E 22:50:50 21° SSE
STARLINK-1452 1.5 22:46:16 10° W 22:48:16 73° S 22:50:20 10° E
STARLINK-1444 1.6 22:46:21 10° W 22:48:24 73° S 22:50:30 10° E
Cosmos 1606 Rocket 4.0 22:44:31 10° NNW 22:48:45 52° W 22:51:37 19° SSW
STARLINK-1203 3.9 22:44:53 10° W 22:48:56 46° SSW 22:52:01 16° SE
STARLINK-1436 (VISORSAT) 1.6 22:48:07 10° W 22:50:07 74° S 22:52:12 10° E
STARLINK-1450 1.6 22:48:12 10° W 22:50:14 74° S 22:52:18 10° E
STARLINK-1398 1.6 22:48:18 10° W 22:50:19 74° S 22:52:24 10° E
STARLINK-1392 1.6 22:48:19 10° W 22:50:19 74° S 22:52:25 10° E
STARLINK-1399 1.6 22:48:19 10° W 22:50:20 74° S 22:52:26 10° E
STARLINK-1393 1.6 22:48:20 10° W 22:50:21 74° S 22:52:26 10° E
STARLINK-1415 1.6 22:48:20 10° W 22:50:21 74° S 22:52:26 10° E
STARLINK-1395 1.6 22:48:20 10° W 22:50:21 74° S 22:52:26 10° E
STARLINK-1394 1.6 22:48:20 10° W 22:50:21 74° S 22:52:26 10° E
STARLINK-1414 1.6 22:48:21 10° W 22:50:21 74° S 22:52:26 10° E
STARLINK-1396 1.6 22:48:21 10° W 22:50:22 74° S 22:52:27 10° E
STARLINK-1397 1.6 22:48:21 10° W 22:50:22 74° S 22:52:27 10° E
STARLINK-1416 1.6 22:48:21 10° W 22:50:22 74° S 22:52:27 10° E
STARLINK-1404 1.6 22:48:21 10° W 22:50:22 74° S 22:52:27 10° E
STARLINK-1401 1.6 22:48:22 10° W 22:50:22 74° S 22:52:28 10° E
STARLINK-1419 1.6 22:48:22 10° W 22:50:23 74° S 22:52:28 10° E
STARLINK-1408 1.6 22:48:22 10° W 22:50:23 74° S 22:52:28 10° E
STARLINK-1437 1.6 22:48:23 10° W 22:50:23 74° S 22:52:29 10° E
STARLINK-1453 1.6 22:48:23 10° W 22:50:23 74° S 22:52:29 10° E
STARLINK-1417 1.6 22:48:23 10° W 22:50:24 74° S 22:52:29 10° E
STARLINK-1402 1.6 22:48:24 10° W 22:50:25 74° S 22:52:30 10° E
STARLINK-1420 1.6 22:48:24 10° W 22:50:25 74° S 22:52:30 10° E
STARLINK-1458 1.6 22:48:25 10° W 22:50:26 74° S 22:52:31 10° E
STARLINK-1413 1.6 22:48:25 10° W 22:50:26 74° S 22:52:31 10° E
STARLINK-1406 1.6 22:48:25 10° W 22:50:26 74° S 22:52:31 10° E
STARLINK-1460 1.6 22:48:25 10° W 22:50:26 74° S 22:52:31 10° E
STARLINK-1422 1.6 22:48:26 10° W 22:50:27 74° S 22:52:32 10° E
STARLINK-1440 1.6 22:48:26 10° W 22:50:27 74° S 22:52:32 10° E
STARLINK-1445 1.6 22:48:27 10° W 22:50:28 74° S 22:52:33 10° E
STARLINK-1443 1.6 22:48:28 10° W 22:50:28 74° S 22:52:34 10° E
STARLINK-1446 1.6 22:48:29 10° W 22:50:30 74° S 22:52:35 10° E
STARLINK-1454 1.6 22:48:29 10° W 22:50:30 74° S 22:52:35 10° E
STARLINK-1457 1.6 22:48:29 10° W 22:50:31 74° S 22:52:36 10° E
STARLINK-1456 1.6 22:48:30 10° W 22:50:31 74° S 22:52:36 10° E
STARLINK-1451 1.6 22:48:30 10° W 22:50:31 74° S 22:52:36 10° E
STARLINK-1455 1.6 22:48:31 10° W 22:50:32 74° S 22:52:36 10° E
STARLINK-1447 1.6 22:48:31 10° W 22:50:32 74° S 22:52:36 10° E
STARLINK-1442 1.6 22:48:31 10° W 22:50:32 74° S 22:52:37 10° E
STARLINK-1449 1.6 22:48:32 10° W 22:50:32 74° S 22:52:37 10° E
STARLINK-1448 1.6 22:48:32 10° W 22:50:33 74° S 22:52:37 10° E
STARLINK-1441 1.6 22:48:32 10° W 22:50:33 74° S 22:52:38 10° E
STARLINK-1405 1.6 22:48:33 10° W 22:50:34 74° S 22:52:39 10° E
STARLINK-1423 1.6 22:48:33 10° W 22:50:34 74° S 22:52:39 10° E
STARLINK-1421 1.6 22:48:34 10° W 22:50:34 74° S 22:52:39 10° E
STARLINK-1407 1.6 22:48:34 10° W 22:50:34 74° S 22:52:40 10° E
STARLINK-1410 1.6 22:48:34 10° W 22:50:34 74° S 22:52:39 10° E
STARLINK-1439 1.6 22:48:35 10° W 22:50:35 74° S 22:52:41 10° E
STARLINK-1400 1.6 22:48:34 10° W 22:50:35 74° S 22:52:40 10° E
STARLINK-1351 1.6 22:48:36 10° W 22:50:37 74° S 22:52:42 10° E
STARLINK-1409 1.6 22:48:36 10° W 22:50:37 74° S 22:52:42 10° E
STARLINK-1434 1.6 22:48:36 10° W 22:50:37 74° S 22:52:42 10° E
STARLINK-1418 1.6 22:48:36 10° W 22:50:37 74° S 22:52:42 10° E
STARLINK-1370 1.6 22:48:37 10° W 22:50:37 74° S 22:52:42 10° E
STARLINK-1403 1.6 22:48:38 10° W 22:50:38 74° S 22:52:43 10° E
STARLINK-1433 1.6 22:48:38 10° W 22:50:39 74° S 22:52:44 10° E
STARLINK-1411 1.6 22:48:40 10° W 22:50:41 74° S 22:52:45 10° E
STARLINK-1438 1.6 22:48:40 10° W 22:50:41 74° S 22:52:46 10° E
STARLINK-1412 1.6 22:48:40 10° W 22:50:41 74° S 22:52:46 10° E
ATLAS 2AS CENTAUR R/B 3.4 22:43:41 10° WSW 22:51:42 70° NW 22:59:32 10° NE
STARLINK-1371 3.6 22:48:12 10° SW 22:51:55 47° SSE 22:55:38 10° E
Cosmos 2098 Rocket 4.5 22:45:55 15° SSW 22:52:18 83° W 22:59:38 10° N
STARLINK-1246 4.0 22:51:48 10° W 22:55:44 43° SSW 22:58:27 18° SE
STARLINK-1341 3.6 22:52:12 10° SW 22:55:56 49° SSE 22:59:40 10° E
Meteor 2-5 Rocket 3.7 22:51:49 18° S 22:56:01 82° E 23:01:45 10° NNE
STARLINK-29 2.8 22:53:00 10° WSW 22:56:13 77° S 22:59:25 10° E
ALOS 2 2.8 22:53:44 21° S 22:56:34 60° WSW 23:00:57 10° NNW
KORONAS-FOTON 4.2 22:56:12 18° SSW 22:58:55 57° WNW 23:02:46 10° N
STARLINK-1374 3.5 22:56:06 10° SW 22:59:49 50° SSE 23:03:34 10° E
STARLINK-1224 4.1 22:56:47 10° W 23:00:42 41° SSW 23:03:14 19° SSE
CZ-4C R/B 3.3 22:59:36 18° SSE 23:02:09 26° ESE 23:06:59 10° ENE
Cosmos 1300 2.6 22:58:59 10° NNW 23:02:50 85° WSW 23:05:03 24° S
STARLINK-1339 3.5 23:00:03 10° SW 23:03:47 52° SSE 23:07:32 10° E
STARLINK-1225 4.1 23:01:47 10° W 23:05:39 39° SSW 23:08:01 20° SSE
Cosmos 1812 Rocket 4.4 23:02:19 10° N 23:06:38 45° ENE 23:09:59 15° SE
Helios 1B rocket 4.0 23:03:27 10° NE 23:06:55 25° E 23:09:18 15° SE
STARLINK-1377 3.5 23:06:20 10° WSW 23:10:12 56° SSE 23:14:04 10° E
STARLINK-1230 4.2 23:06:45 10° W 23:10:35 37° SSW 23:12:46 21° SSE
COSMOS 2455 3.5 23:08:06 10° WSW 23:14:00 56° NW 23:19:59 10° NE
Meteor 2-10 Rocket 4.2 23:09:04 10° N 23:14:06 48° ENE 23:18:26 13° SE
Cosmos 1674 3.8 23:11:24 14° SW 23:14:17 37° WNW 23:17:52 10° N
STARLINK-1353 3.5 23:10:27 10° WSW 23:14:19 58° SSE 23:18:12 10° E
STARLINK-1243 4.3 23:11:46 10° W 23:15:33 35° SSW 23:17:35 22° SSE
Cosmos 2228 4.3 23:12:00 10° NNW 23:15:42 30° W 23:18:24 16° SW
STARLINK-1320 2.8 23:13:01 10° WSW 23:16:06 60° SSE 23:19:11 10° E
STARLINK-1322 2.8 23:13:18 10° WSW 23:16:24 60° SSE 23:19:30 10° E
STARLINK-1375 3.4 23:12:42 10° WSW 23:16:31 58° SSE 23:20:19 10° E
STARLINK-1324 2.8 23:13:42 10° WSW 23:16:47 61° SSE 23:19:52 10° E
STARLINK-1294 2.8 23:13:59 10° WSW 23:17:04 61° SSE 23:20:10 10° E
STARLINK-1261 2.8 23:14:21 10° WSW 23:17:26 61° SSE 23:20:32 10° E
STARLINK-1325 2.8 23:14:41 10° WSW 23:17:47 61° SSE 23:20:52 10° E
STARLINK-1333 2.8 23:15:03 10° WSW 23:18:09 61° SSE 23:21:14 10° E
STARLINK-1334 2.8 23:15:23 10° WSW 23:18:28 61° SSE 23:21:34 10° E
STARLINK-1326 2.8 23:15:43 10° WSW 23:18:48 62° SSE 23:21:54 10° E
STARLINK-1323 2.8 23:16:02 10° WSW 23:19:08 62° SSE 23:22:14 10° E
STARLINK-1349 2.8 23:16:23 10° WSW 23:19:28 62° SSE 23:22:33 10° E
STARLINK-1336 2.8 23:16:43 10° WSW 23:19:48 62° SSE 23:22:54 10° E
Meteor 2-14 Rocket 4.5 23:15:15 18° SSW 23:19:55 87° W 23:26:08 10° N
STARLINK-1331 2.8 23:17:04 10° WSW 23:20:09 62° SSE 23:23:15 10° E
STARLINK-1344 2.8 23:17:23 10° WSW 23:20:28 62° SSE 23:23:35 10° E
STARLINK-1236 4.3 23:16:46 10° W 23:20:30 33° SSW 23:22:21 22° SSE
STARLINK-1343 2.8 23:17:43 10° WSW 23:20:49 63° SSE 23:23:54 10° E
Cosmos 1602 Rocket 4.3 23:18:22 19° SSE 23:21:03 42° E 23:25:09 10° NNE
STARLINK-1346 2.8 23:18:02 10° WSW 23:21:08 63° SSE 23:24:16 10° E
Cosmos 921 Rocket 3.1 23:18:04 18° SSW 23:21:14 75° WNW 23:25:40 10° NNE
STARLINK-1328 2.8 23:18:22 10° WSW 23:21:28 63° SSE 23:24:34 10° E
STARLINK-1354 2.8 23:18:44 10° WSW 23:21:50 63° SSE 23:24:56 10° E
STARLINK-1347 2.8 23:19:04 10° WSW 23:22:09 63° SSE 23:25:15 10° E
STARLINK-1357 2.8 23:19:26 10° WSW 23:22:31 63° SSE 23:25:38 10° E
STARLINK-1350 3.4 23:18:43 10° WSW 23:22:37 62° SSE 23:26:31 10° E
Meteor 2-21 Rocket 4.5 23:18:05 19° S 23:22:43 85° E 23:28:59 10° NNE
STARLINK-1335 2.8 23:19:42 10° WSW 23:22:48 64° SSE 23:25:54 10° E
STARLINK-1327 2.8 23:20:06 10° WSW 23:23:12 64° SSE 23:26:17 10° E
Cosmos 220 Rocket 4.1 23:20:04 18° SSW 23:23:21 81° WNW 23:27:50 10° NNE
STARLINK-1340 2.8 23:20:27 10° WSW 23:23:32 64° SSE 23:26:39 10° E
Cosmos 1437 2.5 23:22:12 29° SSW 23:23:34 89° WNW 23:26:37 10° NNE
Lacrosse 4 Rocket 1.4 23:19:27 10° NW 23:23:48 82° SW 23:26:58 17° SSE
STARLINK-1356 2.8 23:20:47 10° WSW 23:23:53 64° SSE 23:26:59 10° E
STARLINK-1345 2.8 23:21:07 10° WSW 23:24:12 64° SSE 23:27:19 10° E
STARLINK-1355 2.8 23:21:26 10° WSW 23:24:32 64° SSE 23:27:38 10° E
STARLINK-1321 2.8 23:21:46 10° WSW 23:24:51 64° SSE 23:27:58 10° E
STARLINK-1358 2.8 23:22:08 10° WSW 23:25:14 65° SSE 23:28:20 10° E
RESURS DK-1 3.3 23:21:20 10° SW 23:25:20 47° NW 23:29:22 10° NNE
STARLINK-1332 2.8 23:22:26 10° WSW 23:25:32 65° SSE 23:28:39 10° E
STARLINK-1348 2.7 23:22:46 10° WSW 23:25:52 65° SSE 23:28:58 10° E
STARLINK-1330 2.7 23:23:07 10° WSW 23:26:13 65° SSE 23:29:19 10° E
STARLINK-1363 2.7 23:23:26 10° WSW 23:26:32 65° SSE 23:29:39 10° E
STARLINK-1352 3.4 23:22:55 10° WSW 23:26:50 64° SSE 23:30:45 10° E
STARLINK-1337 2.7 23:23:47 10° WSW 23:26:54 65° SSE 23:30:00 10° E
STARLINK-1342 2.7 23:24:09 10° WSW 23:27:15 66° SSE 23:30:21 10° E
STARLINK-1364 2.7 23:24:29 10° WSW 23:27:35 66° SSE 23:30:42 10° E
STARLINK-1376 2.7 23:24:49 10° WSW 23:27:55 66° SSE 23:31:01 10° E
STARLINK-1360 2.7 23:25:09 10° WSW 23:28:15 66° SSE 23:31:22 10° E
BREEZE-M R/B 3.8 23:21:35 10° SW 23:28:29 41° SSE 23:32:05 10° E
STARLINK-1361 2.7 23:25:29 10° WSW 23:28:35 66° SSE 23:31:42 10° E
STARLINK-1367 2.8 23:25:47 10° WSW 23:28:55 66° SSE 23:32:03 10° E
Cosmos 1980 Rocket 3.8 23:25:34 12° SE 23:29:05 21° E 23:33:14 10° NE
Okean 1-7 Rocket 3.9 23:25:56 19° SSW 23:29:06 65° WNW 23:33:40 10° N
STARLINK-1366 2.7 23:26:10 10° WSW 23:29:16 67° SSE 23:32:23 10° E
STARLINK-1269 4.5 23:26:47 10° W 23:30:24 30° SSW 23:31:55 23° S
STARLINK-1368 3.4 23:27:07 10° WSW 23:31:03 66° SSE 23:34:58 10° E
STARLINK-52 2.8 23:28:26 10° W 23:31:40 81° S 23:34:53 10° E
CZ-4 R/B 4.3 23:29:15 10° NNE 23:33:54 50° E 23:36:58 20° S
USA 215 3.3 23:27:53 10° SE 23:34:19 57° SW 23:40:46 10° WNW
STARLINK-1369 3.4 23:31:20 10° WSW 23:35:16 68° SSE 23:39:12 10° E
Cosmos 1892 Rocket 4.3 23:34:23 16° SW 23:37:37 45° WNW 23:41:50 10° N
Cosmos 1455 2.6 23:35:21 10° N 23:39:03 54° ENE 23:41:41 18° SSE
STARLINK-1372 3.4 23:35:34 10° WSW 23:39:30 69° SSE 23:43:27 10° E
Helios 1A 3.8 23:38:21 20° SSW 23:40:44 39° W 23:44:41 10° NNW
Meteor 1-24 Rocket 4.0 23:36:45 17° SSW 23:40:59 62° WNW 23:46:34 10° N
SL-4 R/B 2.3 23:36:28 10° W 23:41:17 67° S 23:46:03 10° ESE
ATLAS 5 CENTAUR R/B 2.1 23:39:08 10° W 23:41:35 37° NNW 23:43:33 10° NE
STARLINK-1378 3.3 23:38:06 10° WSW 23:41:59 70° SSE 23:45:52 10° E
Cosmos 2263 Rocket 3.4 23:36:46 10° NNW 23:42:06 42° NE 23:47:23 10° ESE
SJ 16-02 1.7 23:38:01 10° NNW 23:42:19 51° WSW 23:44:59 21° S
Cosmos 2297 Rocket 2.8 23:39:14 10° NW 23:44:30 40° WSW 23:48:03 19° SSW
STARLINK-1379 3.3 23:41:19 10° WSW 23:45:10 71° SSE 23:49:03 10° E
Cosmos 1626 3.0 23:42:49 18° SW 23:45:16 41° WNW 23:48:50 10° N
SeaSat 1 3.0 23:40:59 10° NNE 23:45:49 56° NW 23:50:39 10° SW
FALCON 9 DEB 3.0 23:42:24 10° W 23:45:51 81° S 23:49:18 10° E
Cosmos 2219 4.1 23:41:41 10° NW 23:46:41 33° WSW 23:50:00 18° SSW
SL-16 R/B 3.7 23:41:28 10° SE 23:47:09 41° ENE 23:52:54 10° N
STARLINK-1329 3.3 23:44:35 10° WSW 23:48:28 72° SSE 23:52:21 10° E
ATLAS CENTAUR R/B 3.5 23:47:45 10° W 23:51:16 26° NNW 23:54:37 10° NNE
Cosmos 1656 3.7 23:48:16 18° SSW 23:52:35 80° ESE 23:58:11 10° NNE
STARLINK-1362 3.3 23:50:02 10° WSW 23:53:57 74° SSE 23:57:52 10° E
EO 1 Delta rocket 4.4 23:49:01 10° N 23:54:30 60° WNW 23:58:06 17° SSW
Alouette 2 Rocket 3.8 23:49:27 10° NNW 23:54:55 77° ENE 23:57:57 17° SSE
